Regional Weather Roundup
Issued by NWS

Home | Current Version | Previous Version | Graphics & Text | Print | Product List | Glossary On
Versions: 1 2 3 4 5 6 7 8 9 10 11 12 13 14 15 16 17 18 19 20 21 22 23 24 25 26 27 28 29 30 31 32 33 34 35 36 37 38 39 40 41 42 43 44 45 46 47 48 49 50
000
ASUS43 KFSD 231802
RWRSD

WEATHER ROUNDUP FOR SOUTH DAKOTA
NATIONAL WEATHER SERVICE SIOUX FALLS SD
100 PM CDT SAT AUG 23 2014

NOTE: "FAIR" INDICATES FEW OR NO CLOUDS BELOW 12,000 FEET WITH NO
SIGNIFICANT WEATHER AND/OR OBSTRUCTIONS TO VISIBILITY.


SDZ001>005-009-010-012>017-231900-
NORTHWEST AND NORTH CENTRAL SOUTH DAKOTA

CITY           SKY/WX    TMP DP  RH WIND       PRES   REMARKS
BUFFALO          N/A     61  59  93 E22G30    29.80F
FAITH            N/A     62  62 100 NE18      29.80F
MOBRIDGE       LGT RAIN  65  65 100 E16G29    29.80F FOG
$$

SDZ012>016-024>037-041>051-057-063-072>074-231900-
SOUTHWEST AND SOUTH CENTRAL SOUTH DAKOTA

CITY           SKY/WX    TMP DP  RH WIND       PRES   REMARKS
RAPID CTY ARPT PTSUNNY   71  63  75 NE6       29.84F
PIERRE         CLOUDY    72  67  84 SE16      29.77F
ELLSWORTH AFB  PTSUNNY   69  62  80 NE3       29.83F
PHILIP         CLOUDY    71  65  81 SW9       29.78S
PINE RIDGE     CLOUDY    68  62  81 CALM      29.86S
WINNER         CLOUDY    75  66  73 SE23G29   29.81F
$$

SDZ004>011-016>023-039-040-231900-
NORTHEAST SOUTH DAKOTA

CITY           SKY/WX    TMP DP  RH WIND       PRES   REMARKS
ABERDEEN       CLOUDY    69  67  93 E15       29.87F
WATERTOWN      CLOUDY    71  66  84 SE13      29.91R
SISSETON         N/A     70  68  93 E12       29.90F
$$

SDZ017-020-022-023-036>040-048>070-231900-
SOUTHEAST SOUTH DAKOTA

CITY           SKY/WX    TMP DP  RH WIND       PRES   REMARKS
SIOUX FALLS    CLOUDY    78  70  76 S15       29.88S
HURON          CLOUDY    77  68  73 SE13G21   29.83F
CHAMBERLAIN    CLOUDY    74  66  76 SE15G22   29.82F
MITCHELL       PTSUNNY   78  70  76 SE13      29.83F
YANKTON        PTSUNNY   79  72  78 E15G21    29.84F
$$

ABBREVIATIONS USED IN REMARKS
   TC - TEMPERATURE IN CELSIUS
  WCI - WIND CHILL INDEX
   HX - HEAT INDEX
  VSB - VISIBILITY




USA.gov is the U.S. government's official web portal to all federal, state and local government web resources and services.